Voltar ao catálogo

FENGYUN 1C DEB

AtivoSSO
NORAD 35202·DEBRIS·🇨🇳 China

Lançado May 10, 1999 de Taiyuan Satellite Launch Center

Loading…

Próximas Passagens (próximas 24 horas)

TLE

AtualizadoSource: Space-Track

Época: Sep 14, 2026, 01:45 UTC

1 35202U 99025DPJ 26257.07302273  .00000239  00000-0  37084-3 0  9992
2 35202 100.0682 303.7113 0378873  70.3706 293.7897 13.35077208606506

Acompanhe FENGYUN 1C DEB em tempo real com AllMySat

Download on the App Store